EW1736 Weather Reports


Display with metric or nautical units.
time (UTC)temp
F
wind
direction
speed
MPH
gust
MPH
rain 1hr
in
rain 24hr
in
rain mn
in
humidity
%
barometer
mb
20260901210657 58 0 12.0 18.0 0.00 0.00 0.00 68 1019.8
20260901205153 58 213 8.0 19.0 0.00 0.00 0.00 66 1019.7
20260901204341 58 221 8.0 12.0 0.00 0.00 0.00 67 1019.6
20260901202149 57 300 7.0 14.0 0.00 0.00 0.00 71 1019.3
20260901200646 56 306 7.0 18.0 0.00 0.00 0.00 72 1019.2
20260901195145 56 315 5.0 15.0 0.00 0.00 0.00 72 1019.0
20260901193642 55 273 8.0 18.0 0.00 0.00 0.00 72 1018.8
20260901192137 55 268 9.0 17.0 0.00 0.00 0.00 72 1018.6
20260901190632 54 246 12.0 18.0 0.00 0.00 0.00 72 1018.2
20260901185130 54 277 8.0 24.0 0.00 0.00 0.00 72 1018.0
20260901183628 53 238 11.0 20.0 0.00 0.00 0.00 72 1017.9
20260901182124 53 287 12.0 18.0 0.00 0.00 0.00 72 1017.9
20260901182018 53 252 13.0 25.0 0.00 0.00 0.00 72 1017.8
20260901175828 53 244 13.0 21.0 0.00 0.00 0.00 71 1017.7
20260901173617 53 235 14.0 19.0 0.00 0.00 0.00 71 1017.7
20260901172116 53 247 12.0 21.0 0.00 0.00 0.00 70 1017.4
20260901170612 53 238 11.0 22.0 0.00 0.00 0.00 69 1017.1
20260901165112 53 257 14.0 27.0 0.00 0.00 0.00 69 1017.2
20260901163608 53 265 18.0 28.0 0.00 0.00 0.00 68 1016.8
20260901162105 53 265 15.0 22.0 0.00 0.00 0.00 66 1016.7
20260901161301 54 254 13.0 19.0 0.00 0.00 0.00 65 1016.8
20260901155809 54 216 14.0 18.0 0.00 0.00 0.00 63 1016.8
20260901153559 54 233 10.0 15.0 0.00 0.00 0.00 64 1016.9
20260901152107 55 247 13.0 20.0 0.00 0.00 0.00 61 1017.0
20260901152013 54 225 11.0 19.0 0.00 0.00 0.00 62 1016.9
20260901145051 54 265 11.0 18.0 0.00 0.00 0.00 62 1017.1
20260901143546 54 216 15.0 22.0 0.00 0.00 0.00 63 1017.3
20260901142046 54 205 11.0 24.0 0.00 0.00 0.00 64 1017.3
20260901140543 54 254 19.0 31.0 0.00 0.00 0.00 66 1017.2
20260901135038 54 204 20.0 38.0 0.00 0.00 0.00 69 1017.2
20260901133534 54 220 28.0 41.0 0.00 0.00 0.00 70 1016.9
20260901132035 53 243 30.0 43.0 0.00 0.00 0.00 72 1016.8
20260901130547 54 240 28.0 40.0 0.00 0.00 0.00 71 1016.9
20260901125030 54 236 25.0 35.0 0.00 0.00 0.00 71 1016.5
20260901123526 54 248 26.0 37.0 0.00 0.00 0.00 69 1016.6
20260901122730 54 207 23.0 33.0 0.00 0.00 0.00 69 1017.2
20260901120523 54 273 17.0 24.0 0.00 0.00 0.00 68 1017.7
20260901115018 53 232 10.0 14.0 0.00 0.00 0.00 68 1018.0
20260901113515 53 304 3.0 13.0 0.00 0.00 0.00 67 1018.2
20260901112015 53 317 2.0 13.0 0.00 0.00 0.00 67 1018.3
20260901110512 53 326 3.0 14.0 0.00 0.00 0.00 66 1018.2
20260901105659 53 340 5.0 14.0 0.00 0.00 0.00 65 1018.2
20260901104157 54 273 4.0 11.0 0.00 0.00 0.00 64 1018.2
20260901102003 54 292 5.0 17.0 0.00 0.00 0.00 62 1018.2
20260901100459 55 238 11.0 16.0 0.00 0.00 0.00 61 1017.9
20260901094954 55 248 8.0 14.0 0.00 0.00 0.00 60 1017.9
20260901093450 55 215 8.0 15.0 0.00 0.00 0.00 60 1017.9
20260901091946 55 231 7.0 11.0 0.00 0.00 0.00 61 1018.0
20260901090448 55 204 6.0 18.0 0.00 0.00 0.00 60 1018.0
20260901084942 55 278 6.0 15.0 0.00 0.00 0.00 62 1017.6
20260901083442 55 132 3.0 13.0 0.00 0.00 0.00 64 1017.4
20260901081938 55 251 4.0 12.0 0.00 0.00 0.00 63 1017.4
20260901080434 55 231 2.0 14.0 0.00 0.00 0.00 61 1017.4
20260901074935 55 313 4.0 13.0 0.00 0.00 0.00 60 1017.2
20260901073431 55 5 9.0 13.0 0.00 0.00 0.00 62 1016.9
20260901071932 55 14 6.0 10.0 0.00 0.00 0.00 60 1016.9
20260901071825 55 284 4.0 18.0 0.00 0.00 0.00 59 1016.7
20260901064917 55 279 11.0 18.0 0.00 0.00 0.00 58 1016.5
20260901064108 55 279 10.0 19.0 0.00 0.00 0.00 62 1016.4
20260901061913 55 246 13.0 21.0 0.00 0.00 0.00 62 1016.1
20260901060409 55 252 13.0 20.0 0.00 0.00 0.00 62 1016.0
20260901054910 56 254 17.0 26.0 0.00 0.00 0.00 60 1015.6
20260901054103 56 243 13.0 27.0 0.00 0.00 0.00 63 1015.7
20260901051906 56 265 16.0 23.0 0.00 0.00 0.00 62 1015.3
20260901050401 56 243 22.0 36.0 0.00 0.00 0.00 61 1014.8
20260901044857 57 236 19.0 29.0 0.00 0.00 0.00 59 1014.7
20260901043358 58 246 19.0 34.0 0.00 0.01 0.00 57 1014.3
20260901041853 59 234 20.0 30.0 0.00 0.01 0.00 58 1014.1
20260901041044 59 227 17.0 35.0 0.00 0.01 0.00 54 1014.0
20260901034849 59 223 21.0 37.0 0.00 0.01 0.00 57 1013.7
20260901033346 59 233 29.0 42.0 0.00 0.01 0.00 53 1013.2
20260901031846 60 248 23.0 44.0 0.00 0.01 0.00 56 1013.3
20260901030341 60 250 27.0 34.0 0.00 0.01 0.00 53 1013.3
20260901024842 60 223 22.0 39.0 0.00 0.01 0.00 54 1013.4
20260901023337 60 257 26.0 40.0 0.00 0.01 0.00 54 1013.3
20260901021840 60 242 32.0 41.0 0.00 0.01 0.00 51 1013.2
20260901020334 61 223 21.0 29.0 0.00 0.02 0.00 55 1013.4
20260901014834 60 218 19.0 28.0 0.00 0.02 0.00 51 1013.5
20260901013329 60 246 22.0 36.0 0.00 0.02 0.00 52 1013.6
20260901013213 60 228 22.0 33.0 0.00 0.05 0.00 53 1013.9
20260901011026 60 232 17.0 35.0 0.00 0.05 0.00 56 1014.3
20260901004823 60 244 25.0 33.0 0.00 0.05 0.00 57 1014.4
20260901003322 60 233 20.0 26.0 0.00 0.06 0.00 56 1014.7
20260901001819 60 240 17.0 31.0 0.00 0.06 0.00 58 1014.7
20260901000318 60 207 17.0 33.0 0.00 0.06 0.00 54 1014.6
20260831234808 60 246 23.0 34.0 0.00 0.06 0.00 55 1014.6
20260831233309 60 240 18.0 28.0 0.00 0.06 0.00 56 1014.7
20260831232504 60 209 15.0 26.0 0.00 0.06 0.00 53 1014.5
20260831230304 60 242 22.0 30.0 0.00 0.06 0.00 53 1014.3
20260831224800 60 225 15.0 27.0 0.00 0.06 0.00 54 1014.6
20260831223256 59 205 17.0 26.0 0.00 0.06 0.00 53 1014.6
20260831221756 59 220 14.0 27.0 0.00 0.06 0.00 54 1014.5
20260831220252 59 236 14.0 26.0 0.00 0.06 0.00 54 1014.2
20260831215438 59 198 11.0 24.0 0.00 0.06 0.00 52 1014.2
20260831213248 58 223 14.0 17.0 0.00 0.06 0.00 54 1014.0
20260831211744 58 232 9.0 15.0 0.00 0.06 0.00 56 1013.7